THOR ABLESTAR DEB, 230

Orbit data source: Space-Track

THOR ABLESTAR DEB, 230 is space debris in LEO originally from a launch on Thu, 29 Jun 1961 UTC launched from the Air Force Eastern Test Range (AFETR). Debris objects in space refer to the collection of defunct objects orbiting the Earth. Examples of debris include non-operational satellites, rocket bodies, and fragments generated from explosions, collisions, or faulty payload assembly.

Loading next visibility...
Identifier
230, 1961-015BN
Orbit
LEO
Last TLE update
22 hours ago
Origin
Manufacturer
Unknown
Mission
Spacecraft
Bus & Motor
Unknown
Mass
Unknown
Launch date (UTC)
1961-06-29 (64 years ago)
Launch vehicle
Unknown
Launch site
Air Force Eastern Test Range (AFETR)
Object type
Payload
Rocket body
Debris
Shape & HBR
Unknown
Radar Cross Section
Small (<0.1 m²)

Expand to show TLE details & history

TLE from 22 hours ago
0 THOR ABLESTAR DEB
1 00230U 61015BN  25199.58102190  .00000048  00000-0  87287-4 0  9998
2 00230  66.8828 149.0210 0087717  50.8905 309.9935 13.96699237259165
Epoch: 2025-07-18T13:56Z
TLE epoch observation values (Epoch: 2025-07-18T13:56:40.292Z)
Latitude
0.00001°
Longitude
3.22269°
Altitude
866.602 km
Speed
7.44 km/s
True Right ascension
09h 56m 05s
True Declination
0° 00' 00"
Sunlit
Object was in daylight at epoch
Visualization orbit readout
Latitude
-57.91124°
Longitude
-41.66274°
Altitude
955.456 km
Speed
7.359 km/s
Apparent Right ascension
10h 16m 56s
Apparent Declination
-58° 07' 26"
Sunlit
Object is in daylight
Visualization observer readout
Local Sidereal Time
00:47:41
Azimuth
139.883° SSE
Elevation
-59.93°
Doppler factor
1
Orbital elements
Apogee altitude
967.5 km
Perigee altitude
839.753 km
Semi-major axis
7,281.764 km
Eccentricity
0.00877
Inclination
66.8828°
RAAN
149.021°
Arg. of periapsis
50.8905°
True anomaly
309.21799°
Mean anomaly
309.9935°
Eccentric anomaly
309.60629°
Mean motion
3.49292 °/min
Orbital period
103.07 mins
BSTAR
0.000087287
Loading maneuver chart data...
Loading SW <> Apogee altitude chart data...
|